Location: La Bastide
(43.1661°N, 1.2755°E)
Time: 09:19:36
(UTC+00:00)

IRIDIUM 104 - Pass Details

Date: 13 December 2025
Orbit: 776 x 779 km, 86.4° (Epoch: 21 January)

Event Time Altitude Azimuth Distance (km) Brightness Sun altitude
Rises 17:11:00 0° 356° (N) 3,273 7.4 -9.1°
Reaches altitude 10° 17:13:21 10° 356° (N) 2,340 6.6 -9.5°
Maximum altitude 17:18:36 84° 269° (W) 789 4.4 -10.4°
Drops below altitude 10° 17:23:48 10° 182° (S) 2,320 7.1 -11.2°
Sets 17:26:08 0° 181° (S) 3,243 7.9 -11.6°
